Location: ???????
(52.3000°N, 54.4667°E)
Time: 01:50:18
(UTC+00:00)

Cosmos 724 - Pass Details

Date: 24 January 2020
Orbit: 864 x 931 km, 65.6° (Epoch: 22 February)

Event Time Altitude Azimuth Distance (km) Brightness Sun altitude
Rises 14:31:19 0° 217° (SW) 3,505 8.2 -14.7°
Reaches altitude 10° 14:33:49 10° 217° (SW) 2,558 7.4 -15.1°
Maximum altitude 14:39:46 86° 129° (SE) 891 4.2 -16.0°
Enters shadow 14:44:11 18° 42° (NE) 1,996 5.7 -16.6°
